Location: Pensacola
(30.4142°N, 87.2155°W)
Time: 18:26:17
(UTC-05:00)

NANOSAT C BR1 - Pass Details

Date: 13 August 2024
Orbit: 544 x 550 km, 98.1° (Epoch: 12 September)

Event Time Altitude Azimuth Distance (km) Brightness Sun altitude
Rises 05:42:44 0° 354° (N) 2,747 ? -7.4°
Reaches altitude 10° 05:45:14 10° 339° (NNW) 1,848 ? -6.9°
Maximum altitude 05:48:18 22° 289° (WNW) 1,257 ? -6.2°
Drops below altitude 10° 05:51:21 10° 238° (WSW) 1,837 ? -5.6°
Enters shadow 05:52:38 - 229° (SW) 2,276 ? -5.4°
